Location: Vihti�l�
(61.3833°N, 23.0667°E)
Time: 03:32:49
(UTC+00:00)

Meteor 1-18 Rocket - Pass Details

Date: 29 November 2020
Orbit: 836 x 910 km, 81.2° (Epoch: 19 January)

Event Time Altitude Azimuth Distance (km) Brightness Sun altitude
Exits shadow 05:41:12 - 341° (NNW) 3,364 6.9 -9.3°
Reaches altitude 10° 05:43:20 10° 339° (NNW) 2,556 6.3 -9.0°
Maximum altitude 05:49:02 60° 261° (W) 993 4.4 -8.4°
Drops below altitude 10° 05:54:35 10° 183° (S) 2,491 7.1 -7.9°
Sets 05:57:00 0° 180° (S) 3,413 7.8 -7.6°
